Regional Weather Roundup
Issued by NWS

Home | Current Version | Previous Version | Text Only | Print | Product List | Glossary On
Versions: 1 2 3 4 5 6 7 8 9 10 11 12 13 14 15 16 17 18 19 20 21 22 23 24 25 26 27 28 29 30 31 32 33 34 35 36 37 38 39 40 41 42 43 44 45 46 47 48 49
000
ASUS46 KSEW 290110
RWRWA

WASHINGTON REGIONAL WEATHER ROUNDUP
NATIONAL WEATHER SERVICE SEATTLE WA
600 PM PDT THU MAY 28 2015

NOTE:"FAIR" INDICATES FEW OR NO CLOUDS BELOW 12,000 FEET WITH NO
SIGNIFICANT WEATHER AND/OR OBSTRUCTIONS TO VISIBILITY.

WAZ505-507>509-290200-
SEATTLE, TACOMA, EVERETT, AND VICINITY

CITY           SKY/WX    TMP DP  RH WIND       PRES   REMARKS
EVERETT        MOSUNNY   73  54  51 N7        30.01F
BOEING FIELD   SUNNY     82  51  34 VRB6      29.98S
RENTON         SUNNY     79  57  46 NW6       29.98S
SEATAC AIRPORT MOSUNNY   81  51  35 N8        30.00F
JBLM-MCCHORD   SUNNY     82  58  43 NE6       29.98F
PUYALLUP       FAIR      81  55  41 VRB3      30.00S
BREMERTON      SUNNY     79  57  47 NE9       30.01S
JBLM-FT LEWIS  SUNNY     81  57  43 VRB2      29.98F
TACOMA NARROWS SUNNY     78  56  46 NE6       29.99S
$$

WAZ001-503-506-510-514-515-290200-
NORTH INTERIOR

CITY           SKY/WX    TMP DP  RH WIND       PRES   REMARKS
BELLINGHAM     MOSUNNY   74  59  59 SW3       29.99F
FRIDAY HARBOR  MOSUNNY   67  54  63 VRB6      30.02S
EASTSOUND      MOSUNNY   73  55  53 W7        29.98F
PORT ANGELES   MOSUNNY   62  52  69 NW8       30.03F
PORT TOWNSEND  FAIR      72  55  56 N8        30.00S
NAS WHIDBEY    MOSUNNY   60  57  89 W6        30.05F
ARLINGTON      MOSUNNY   75  55  50 W10       29.99S
BURLINGTON     SUNNY     72  59  64 SW5       30.00S
$$

WAZ020-022-039-040-504-511-512-290200-
SOUTHWEST INTERIOR

CITY           SKY/WX    TMP DP  RH WIND       PRES   REMARKS
SHELTON        MOSUNNY   77  56  48 W17G23    29.97S
OLYMPIA        MOSUNNY   83  53  35 MISG      29.98S
CHEHALIS       FAIR      84  61  45 NW10      29.98S
KELSO          MOSUNNY   75  57  53 NW7       30.02S
VANCOUVER      PTSUNNY   84  53  34 N8        29.94F
SCAPPOOSE, OR  MOSUNNY   83  53  35 N9        29.94F
PORTLAND, OR   PTSUNNY   84  54  35 W9        29.95F
$$

WAZ021-516-517-290200-
WASHINGTON COAST

CITY           SKY/WX    TMP DP  RH WIND       PRES   REMARKS
FORKS          PTSUNNY   55  52  89 W8        30.06F
HOQUIAM        CLOUDY    57  53  86 SW13      30.06F FOG
ASTORIA, OR    CLOUDY    57  52  83 W7        30.07F
$$

WAZ019-023-024-040-518-519-290200-
CASCADE MOUNTAINS AND COLUMBIA GORGE

CITY           SKY/WX    TMP DP  RH WIND       PRES   REMARKS
TROUTDALE, OR  MOSUNNY   84  48  28 VRB6      29.93F
THE DALLES, OR MOSUNNY   91  44  19 N8        29.88F
$$

WAZ026-027-041>044-520-521-290200-
EAST SLOPES

CITY           SKY/WX    TMP DP  RH WIND       PRES   REMARKS
OMAK           PTSUNNY   74  52  46 NW9       30.00R
WENATCHEE      PTSUNNY   87  46  24 E7        29.94S
ELLENSBURG     FAIR      84  46  26 CALM      29.96F
YAKIMA         MOSUNNY   88  46  23 SE6       29.94F
$$

WAZ028-034-035-290200-
COLUMBIA BASIN

CITY           SKY/WX    TMP DP  RH WIND       PRES   REMARKS
EPHRATA        MOSUNNY   85  45  24 S8        29.95F
MOSES LAKE     SUNNY     85  44  23 SW8       29.96F
PASCO          SUNNY     88  44  21 NE7       29.93F
HERMISTON, OR  SUNNY     88  43  20 VRB6      29.92F
$$

WAZ036>038-290200-
NORTHEAST WASHINGTON

CITY           SKY/WX    TMP DP  RH WIND       PRES   REMARKS
SPOKANE GEIGER PTSUNNY   74  50  42 N12       30.05R
SPOKANE FELTS  HVY RAIN  68  54  60 VRB3G23   30.04R
FAIRCHILD AFB  PTSUNNY   75  51  42 N10       30.05S
COEURDALENE,ID PTSUNNY   77  50  38 NE22      30.05R
DEER PARK      PTSUNNY   72  53  51 W6        30.05R
$$

WAZ029>033-290200-
SOUTHEAST WASHINGTON

CITY           SKY/WX    TMP DP  RH WIND       PRES   REMARKS
PULLMAN        SUNNY     75  48  38 NE5       30.08S
LEWISTON, ID   MOSUNNY   81  44  27 E9        30.01S
WALLA WALLA    SUNNY     85  48  27 NE9       29.96F
PENDLETON, OR  SUNNY     83  47  28 NE7       29.95F
$$



USA.gov is the U.S. government's official web portal to all federal, state and local government web resources and services.